BMCB-9 Weather Reports


time (UTC)temp
F
wind
direction
speed
knots
gust
knots
rain 1hr
in
rain 24hr
in
rain mn
in
humidity
%
barometer
mb
20260507073057 50 0 0.0 0.0 0.00 0.06 0.00 84 1015.6
20260507072056 50 0 0.0 0.0 0.00 0.06 0.00 85 1015.6
20260507070056 50 0 0.0 0.0 0.00 0.07 0.00 85 1015.5
20260507065055 49 0 0.0 0.0 0.00 0.07 0.00 88 1015.5
20260507064055 49 0 0.0 0.0 0.00 0.08 0.00 91 1015.4
20260507063053 49 0 0.0 0.0 0.00 0.08 0.00 94 1015.3
20260507061056 48 0 0.0 0.0 0.00 0.09 0.00 97 1015.1
20260507060055 48 0 0.0 0.0 0.00 0.10 0.00 97 1015.1
20260507055052 47 0 0.0 0.0 0.00 0.10 0.00 98 1015.0
20260507054054 47 0 0.0 0.0 0.00 0.12 0.00 98 1014.9
20260507053054 47 0 0.0 0.0 0.00 0.13 0.00 98 1014.9
20260507052055 47 0 0.0 0.0 0.00 0.14 0.00 99 1014.8
20260507051055 47 0 0.0 0.0 0.00 0.17 0.00 99 1014.6
20260507050055 47 0 0.0 0.0 0.00 0.17 0.00 99 1014.6
20260507044056 46 0 0.0 0.0 0.00 0.20 0.00 99 1014.4
20260507043056 46 0 0.0 0.0 0.00 0.20 0.00 99 1014.3
20260507042056 46 0 0.0 0.0 0.00 0.21 0.00 99 1014.2
20260507040056 46 0 0.0 0.0 0.00 0.23 0.00 99 1014.1
20260507035056 46 0 0.0 0.0 0.00 0.25 0.00 99 1014.0
20260507033054 46 0 0.0 0.0 0.00 0.25 0.00 98 1014.0
20260507032056 46 0 0.0 0.0 0.00 0.25 0.00 98 1013.9
20260507031054 46 0 0.0 0.0 0.00 0.26 0.00 98 1013.8
20260507030055 46 0 0.0 0.0 0.00 0.26 0.00 98 1013.8
20260507025054 46 0 0.0 0.0 0.00 0.27 0.00 98 1013.8
20260507024054 46 0 0.0 0.0 0.00 0.27 0.00 98 1013.8
20260507023055 46 0 0.0 0.0 0.00 0.27 0.00 98 1013.7
20260507022055 46 0 0.0 0.0 0.00 0.28 0.00 98 1013.7
20260507021056 46 0 0.0 0.0 0.00 0.28 0.00 98 1013.5
20260507020055 46 0 0.0 0.0 0.00 0.29 0.00 98 1013.4
20260507015054 46 0 0.0 0.0 0.00 0.29 0.00 98 1013.4
20260507014056 47 0 0.0 0.0 0.00 0.30 0.00 98 1013.4
20260507013054 47 0 0.0 0.0 0.00 0.30 0.00 98 1013.5
20260507012053 47 0 0.0 0.0 0.00 0.31 0.00 98 1013.5
20260507005055 47 0 0.0 0.0 0.00 0.33 0.00 98 1013.4
20260507004056 47 0 0.0 0.0 0.00 0.33 0.00 98 1013.4
20260507002056 47 0 0.0 0.0 0.00 0.35 0.00 98 1013.3
20260507001055 47 0 0.0 0.0 0.00 0.35 0.00 97 1013.3
20260507000057 47 0 0.0 0.0 0.00 0.36 0.00 97 1013.2
20260506234057 46 0 0.0 0.0 0.00 0.38 0.00 97 1013.1
20260506233057 46 0 0.0 0.0 0.00 0.39 0.00 97 1013.0
20260506230057 46 0 0.0 0.0 0.00 0.41 0.00 98 1012.9
20260506225055 46 0 0.0 0.0 0.00 0.43 0.00 98 1012.9
20260506224056 46 0 0.0 0.0 0.00 0.44 0.00 98 1012.7
20260506222057 46 0 0.0 0.0 0.00 0.46 0.00 98 1012.6
20260506221056 45 0 0.0 0.0 0.00 0.46 0.00 97 1012.5
20260506215058 45 0 0.0 0.0 0.00 0.48 0.47 97 1012.4
20260506214058 45 0 0.0 0.0 0.00 0.49 0.47 97 1012.3
20260506213055 44 0 0.0 0.0 0.00 0.50 0.47 97 1012.3
20260506212058 44 0 0.0 0.0 0.00 0.50 0.47 96 1012.2
20260506211100 44 0 0.0 0.0 0.00 0.50 0.47 95 1012.0
20260506210059 45 0 0.0 0.0 0.00 0.51 0.47 95 1011.9
20260506204058 46 0 0.0 0.0 0.00 0.53 0.47 94 1011.8
20260506203100 46 0 0.0 0.0 0.00 0.54 0.47 93 1011.8
20260506202100 47 0 0.0 0.0 0.00 0.54 0.47 91 1011.7
20260506201101 48 0 0.0 0.0 0.00 0.54 0.47 88 1011.6
20260506200059 48 0 0.0 0.0 0.00 0.55 0.47 89 1011.5
20260506194100 49 0 0.0 0.0 0.00 0.57 0.47 94 1011.2
20260506193059 49 0 0.0 0.0 0.00 0.57 0.47 93 1011.2
20260506192058 50 0 0.0 0.0 0.00 0.59 0.47 92 1011.0
20260506191058 51 0 0.0 0.0 0.00 0.59 0.47 92 1010.9
20260506190100 51 0 0.0 0.0 0.00 0.59 0.47 91 1010.8
20260506185059 51 0 0.0 0.0 0.00 0.60 0.47 90 1010.7
20260506183059 53 0 0.0 0.0 0.00 0.61 0.47 84 1010.4
20260506182059 53 0 0.0 0.0 0.00 0.61 0.47 80 1010.3
20260506181057 53 0 0.0 0.0 0.00 0.63 0.47 80 1010.2
20260506180059 53 0 0.0 0.0 0.00 0.63 0.47 84 1010.0
20260506173057 53 0 0.0 0.0 0.00 0.65 0.47 89 1009.7
20260506172059 54 0 0.0 0.0 0.00 0.65 0.47 86 1009.5
20260506171057 54 0 0.0 0.0 0.00 0.66 0.47 84 1009.4
20260506170055 54 0 0.0 0.0 0.00 0.66 0.47 85 1009.4
20260506165055 54 0 0.0 0.0 0.00 0.67 0.47 84 1009.3
20260506164057 54 0 0.0 0.0 0.00 0.67 0.47 81 1009.2
20260506163056 54 0 0.0 0.0 0.00 0.67 0.47 83 1009.2
20260506162058 55 0 0.0 0.0 0.00 0.67 0.47 83 1009.3
20260506161057 55 0 0.0 0.0 0.00 0.67 0.47 81 1009.3
20260506160055 55 0 0.0 0.0 0.00 0.67 0.47 76 1009.2
20260506155057 55 0 0.0 0.0 0.00 0.67 0.47 77 1009.2
20260506154059 55 0 0.0 0.0 0.00 0.67 0.47 78 1009.2
20260506153057 55 0 0.0 0.0 0.00 0.67 0.47 78 1009.1
20260506152057 55 0 0.0 0.0 0.00 0.67 0.47 82 1009.1
20260506151058 54 0 0.0 0.0 0.00 0.67 0.47 84 1009.1
20260506150055 53 0 0.0 0.0 0.00 0.67 0.47 86 1009.1
20260506144056 53 0 0.0 0.0 0.00 0.67 0.47 91 1009.2
20260506142055 53 0 0.0 0.0 0.00 0.67 0.47 91 1009.3
20260506141056 53 0 0.0 0.0 0.00 0.67 0.47 90 1009.3
20260506135057 53 0 0.0 0.0 0.00 0.67 0.47 89 1009.3
20260506133057 53 0 0.0 0.0 0.00 0.67 0.47 90 1009.3
20260506132058 53 0 0.0 0.0 0.00 0.67 0.47 87 1009.3
20260506131058 53 0 0.0 0.0 0.00 0.67 0.47 84 1009.2
20260506125056 53 0 0.0 0.0 0.00 0.67 0.47 81 1009.1
20260506124055 53 0 0.0 0.0 0.00 0.67 0.47 82 1009.1
20260506123057 53 0 0.0 0.0 0.00 0.67 0.47 84 1009.0
20260506122056 53 0 0.0 0.0 0.00 0.67 0.47 85 1008.9
20260506121054 53 0 0.0 0.0 0.00 0.67 0.47 87 1008.9
20260506120054 52 0 0.0 0.0 0.00 0.67 0.47 89 1008.9
20260506115056 51 0 0.0 0.0 0.00 0.67 0.47 90 1008.9
20260506114057 51 0 0.0 0.0 0.00 0.67 0.47 93 1008.9
20260506113057 51 0 0.0 0.0 0.00 0.67 0.47 94 1008.9
20260506112057 51 0 0.0 0.0 0.00 0.67 0.47 92 1008.9
20260506110056 50 0 0.0 0.0 0.00 0.67 0.47 93 1009.0
20260506105055 50 0 0.0 0.0 0.01 0.67 0.47 95 1009.1
20260506103057 49 0 0.0 0.0 0.01 0.67 0.47 95 1009.0
20260506101055 49 0 0.0 0.0 0.02 0.67 0.47 96 1008.9
20260506095056 49 0 0.0 0.0 0.03 0.67 0.47 97 1008.7
20260506094056 49 0 0.0 0.0 0.03 0.66 0.46 97 1008.7
20260506093055 48 0 0.0 0.0 0.03 0.66 0.46 97 1008.6
20260506092055 48 0 0.0 0.0 0.03 0.66 0.46 97 1008.5
20260506091055 48 0 0.0 0.0 0.03 0.65 0.46 97 1008.5
20260506090057 48 0 0.0 0.0 0.04 0.65 0.46 97 1008.4
20260506085055 48 0 0.0 0.0 0.03 0.65 0.45 98 1008.3
20260506084055 48 0 0.0 0.0 0.03 0.64 0.44 98 1008.2
20260506082054 48 0 0.0 0.0 0.02 0.63 0.43 98 1008.1
20260506081054 48 0 0.0 0.0 0.03 0.63 0.43 99 1008.0